McAlester, OK

11:18 AM CST on December 07, 2019 (GMT -0600)
McAlester Regional

Weather History for KMLC - September, 2019

Change the Weather History Date:

Saturday, September 28, 2019

  Actual Average Record
Temperature  
Mean Temperature 82 °F -  
Max Temperature 90 °F 80 °F 102 °F (1953)
Min Temperature 75 °F 58 °F 41 °F (1967)
Cooling Degree Days 17    
Growing Degree Days 32 (Base 50)    
Moisture  
Dew Point 71 °F    
Average Humidity 72    
Maximum Humidity 87    
Minimum Humidity 55    
Precipitation  
Precipitation 0.00 in - - ()
Sea Level Pressure  
Sea Level Pressure 29.88 in    
Wind  
Wind Speed 8 mph (South)    
Max Wind Speed 13 mph    
Max Gust Speed 23 mph    
Visibility 10 miles    
Events      
Averages and records for this station are not official NWS values.
T = Trace of Precipitation, MM = Missing Value Source: NWS Daily Summary

Daily Weather History Graph

Daily Weather History Graph

Search for Another Location

Airport or City:

Astronomy

Sep. 28, 2019 Rise Set
Actual Time 7:15 AM CDT 7:11 PM CDT
Civil Twilight 6:50 AM CDT 7:36 PM CDT
Nautical Twilight 6:20 AM CDT 8:06 PM CDT
Astronomical Twilight 5:51 AM CDT 8:35 PM CDT
Moon 6:56 AM CDT (9/28) 7:36 PM CDT (9/28)
Length of Visible Light 12h 46m
Length of Day
11h 56m
Waning Crescent, 0% of the Moon is Illuminated
Sep 28
Waning Crescent
Sep 28
New
Oct 5
First Quarter
Oct 13
Full
Oct 21
Last Quarter

Hourly Weather History & Observations

Time (CDT) Temp. Heat Index Dew Point Humidity Pressure Visibility Wind Dir Wind Speed Gust Speed Precip Events Conditions
12:53 AM 78.1 °F - 69.1 °F 74% 29.77 in 10.0 mi South 8.1 mph - N/A   Clear
1:53 AM 78.1 °F - 70.0 °F 76% 29.78 in 10.0 mi South 9.2 mph - N/A   Clear
2:53 AM 77.0 °F - 70.0 °F 79% 29.79 in 10.0 mi South 9.2 mph 16.1 mph N/A   Clear
3:53 AM 75.9 °F - 70.0 °F 82% 29.80 in 10.0 mi South 6.9 mph - N/A   Partly Cloudy
4:53 AM 75.0 °F - 70.0 °F 84% 29.81 in 10.0 mi South 6.9 mph - N/A   Scattered Clouds
5:53 AM 75.0 °F - 70.0 °F 84% 29.83 in 10.0 mi South 8.1 mph 17.3 mph N/A   Partly Cloudy
6:53 AM 75.0 °F - 71.1 °F 87% 29.86 in 10.0 mi South 9.2 mph - N/A   Clear
7:53 AM 75.9 °F - 71.1 °F 85% 29.89 in 10.0 mi Variable 6.9 mph - N/A   Mostly Cloudy
8:16 AM 77.0 °F - 71.1 °F 82% 29.92 in 10.0 mi South 9.2 mph - N/A   Scattered Clouds
8:53 AM 78.1 °F - 72.0 °F 81% 29.91 in 10.0 mi South 9.2 mph - N/A   Partly Cloudy
9:53 AM 81.0 °F 85.2 °F 72.0 °F 74% 29.93 in 10.0 mi South 9.2 mph 16.1 mph N/A   Mostly Cloudy
10:53 AM 82.9 °F 87.5 °F 71.1 °F 67% 29.93 in 10.0 mi South 12.7 mph 23.0 mph N/A   Partly Cloudy
11:53 AM 84.9 °F 90.1 °F 71.1 °F 63% 29.93 in 10.0 mi South 11.5 mph 21.9 mph N/A   Clear
12:53 PM 84.0 °F 89.6 °F 72.0 °F 67% 29.94 in 10.0 mi SSW 9.2 mph - N/A   Overcast
1:53 PM 86.0 °F 91.5 °F 71.1 °F 61% 29.91 in 10.0 mi Variable 6.9 mph 19.6 mph N/A   Partly Cloudy
2:53 PM 88.0 °F 93.8 °F 71.1 °F 57% 29.89 in 10.0 mi Variable 6.9 mph - N/A   Scattered Clouds
3:53 PM 89.1 °F 95.0 °F 71.1 °F 55% 29.88 in 10.0 mi South 6.9 mph 16.1 mph N/A   Partly Cloudy
4:53 PM 88.0 °F 93.8 °F 71.1 °F 57% 29.87 in 10.0 mi South 8.1 mph - N/A   Partly Cloudy
5:53 PM 87.1 °F 92.0 °F 70.0 °F 57% 29.87 in 10.0 mi South 9.2 mph - N/A   Clear
6:53 PM 84.0 °F 89.0 °F 71.1 °F 65% 29.88 in 10.0 mi SSE 5.8 mph - N/A   Clear
7:53 PM 82.0 °F 86.3 °F 71.1 °F 69% 29.88 in 10.0 mi SSE 6.9 mph - N/A   Clear
8:53 PM 80.1 °F 83.8 °F 72.0 °F 76% 29.90 in 10.0 mi ESE 3.5 mph - N/A   Clear
9:53 PM 79.0 °F - 71.1 °F 77% 29.91 in 10.0 mi SSE 4.6 mph - N/A   Clear
10:53 PM 80.1 °F 83.6 °F 71.1 °F 74% 29.92 in 10.0 mi Variable 5.8 mph - N/A   Clear
11:53 PM 79.0 °F - 70.0 °F 74% 29.94 in 10.0 mi Variable 6.9 mph - N/A   Clear